#timestamp,LO_Frequency,Hit,StdDev 
1569013215.4,286047000.4,N
1569013235.2,286047001.3,N
1569013255.1,286047005.2,N
1569013256.0,286047005.2,N
1569013275.8,286047003.6,N
1569013295.6,286047003.4,N
1569013315.5,286047005.5,N
1569013335.3,286047001.7,N
1569013355.2,286047002.1,N
1569013375.9,286047003.8,N
1569013395.7,286047007.6,N
1569013415.6,286047007.2,N
1569013435.4,286047008.3,N
1569013455.3,286047009.2,N
1569013475.1,286047008.8,N
1569013476.0,286047008.8,N
1569013495.8,286047008.4,N
1569013515.7,286047009.0,N
1569013535.5,286047009.0,N
1569013555.3,286047008.0,N
1569013575.2,286047010.5,N
1569013595.0,286047008.2,N
1569013595.9,286047008.2,N
1569013615.8,286047010.3,N
1569013635.6,286047009.8,N
1569013655.4,286047009.3,N
1569013675.3,286047011.6,N
1569013695.1,286047010.4,N
1569013715.8,286047011.5,N
1569013735.7,286047011.3,Y
1569013755.5,286047003.7,P
1569013775.4,286047000.5,N
1569013795.2,286046999.6,N
1569013815.0,286046997.6,N
1569013815.9,286046997.6,N
1569013835.8,286046995.0,N
1569013855.6,286046997.6,N
1569013875.5,286046997.4,N
1569013895.3,286046995.0,N
1569013915.1,286046999.0,N
1569013935.9,286046998.4,N
1569013955.7,286046998.1,N
1569013975.5,286047001.1,N
1569013995.4,286047000.3,N
1569014015.2,286046998.9,N
1569014035.0,286047000.8,N
1569014036.0,286047000.8,N
1569014055.8,286046999.4,N
1569014075.6,286046996.5,N
1569014095.5,286046999.2,N
1569014115.3,286046999.0,N
1569014135.1,286046998.6,N
1569014155.9,286047002.7,N
1569014175.7,286047002.8,N
1569014195.5,286047004.3,N
1569014215.4,286047005.4,N
1569014235.2,286047005.0,N
1569014255.1,286047005.8,N
1569014256.0,286047005.8,N
1569014275.8,286047005.8,N
1569014295.6,286047006.7,N
1569014315.5,286047006.8,N
1569014335.3,286047008.7,N
1569014355.2,286047011.9,Y
1569014375.9,286047003.2,P
1569014395.7,286047002.2,N
1569014415.6,286047000.2,N
1569014435.4,286047001.6,N
1569014455.2,286047003.7,Y
1569014475.1,286047000.2,P
1569014476.0,286047000.2,N
1569014495.8,286047002.5,P
1569014515.7,286047002.1,N
1569014535.5,286047002.4,N
1569014555.3,286047004.6,Y
1569014575.2,286047002.0,P
1569014595.0,286047000.6,N
1569014595.9,286047000.6,N
1569014615.7,286047000.9,N
1569014635.6,286046998.5,N
1569014655.4,286047004.1,Y
1569014675.3,286046998.8,P
1569014695.1,286046993.8,P
1569014696.0,286046993.8,N
1569014715.8,286046993.0,N
1569014735.7,286046990.2,Y
1569014755.5,286046995.6,P
1569014775.4,286046997.6,P
1569014795.2,286046998.0,N
1569014815.0,286046997.8,N
1569014815.9,286046997.8,N
1569014835.8,286046995.8,Y
1569014855.6,286046998.9,P
1569014875.4,286046996.5,P
1569014895.3,286046996.6,P
1569014915.1,286046995.2,Y
1569014935.9,286046998.5,P
1569014955.7,286047001.1,N
1569014975.5,286047000.5,N
1569014995.4,286046998.4,N
1569015015.2,286047000.4,N
1569015035.0,286047001.0,N
1569015035.9,286047001.0,N
1569015055.8,286047000.3,N
1569015075.6,286047001.0,N
1569015095.5,286046998.5,N
1569015115.3,286047000.8,N
1569015135.1,286046997.7,N
1569015155.9,286046994.9,Y
1569015175.7,286046995.7,P
1569015195.6,286046996.3,N
1569015215.4,286046994.2,P
1569015235.2,286046995.1,N
1569015255.1,286046995.1,N
1569015256.0,286046995.1,N
1569015275.8,286046997.4,N
1569015295.6,286046994.9,Y
1569015315.5,286047002.2,P
1569015335.3,286047004.4,N
1569015355.2,286047003.7,N
1569015375.9,286047003.0,N
1569015395.7,286047003.1,N
1569015415.6,286047005.6,N
1569015435.4,286047001.5,N
1569015455.2,286047002.8,N
1569015475.1,286047003.1,N
1569015476.0,286047003.1,N
1569015495.8,286047006.0,N
1569015515.7,286047002.1,N
1569015535.5,286047004.1,N
1569015555.3,286047003.2,N
1569015575.2,286046999.8,N
1569015595.9,286047000.7,N
1569015615.7,286046998.1,N
1569015635.6,286046999.4,N
1569015655.4,286046995.3,N
1569015675.2,286046993.9,N
1569015695.1,286046992.1,N
1569015696.0,286046992.1,N
1569015715.8,286046994.3,N
1569015735.7,286046995.4,N
1569015755.5,286046996.0,N
1569015775.3,286046996.2,N
1569015795.2,286046994.3,N
1569015815.0,286046994.5,N
1569015815.9,286046994.5,N
1569015835.7,286046990.6,N
1569015855.6,286046990.1,N
1569015875.4,286046992.4,N
1569015895.3,286046996.2,N
1569015915.1,286046993.8,N
1569015916.0,286046993.8,N
1569015935.8,286046990.6,N
1569015955.7,286046991.2,N
1569015975.5,286046993.0,N
1569015995.3,286046990.7,N
1569016015.2,286046992.6,N
1569016035.0,286046989.1,N
1569016035.9,286046989.1,N
1569016055.8,286046990.8,N
1569016075.6,286046991.6,N
1569016095.4,286046986.9,Y
1569016115.3,286046992.6,P
1569016135.1,286046995.6,P
1569016155.9,286046994.0,P
1569016175.7,286046996.4,Y
1569016195.5,286047002.6,P
1569016215.4,286046999.0,N
1569016235.2,286046998.2,N
1569016255.0,286047001.9,N
1569016255.9,286047001.9,N
1569016275.8,286047003.8,N
1569016295.6,286047004.0,N
1569016315.5,286047000.1,N
1569016335.3,286047001.4,N
1569016355.1,286047004.3,N
1569016375.9,286047005.9,N
1569016395.7,286047003.5,N
1569016415.5,286047000.0,N
1569016435.4,286046998.4,N
1569016455.2,286046999.1,N
1569016475.0,286046996.9,N
1569016476.0,286046996.9,N
1569016495.8,286046997.5,N
1569016515.6,286046997.8,N
1569016535.5,286046993.3,N
1569016555.3,286046993.9,N
1569016575.1,286046994.9,N
1569016595.9,286046996.1,N
1569016615.7,286046995.5,N
1569016635.6,286046993.3,N
1569016655.4,286046993.6,N
1569016675.2,286046993.7,N
1569016695.1,286046995.8,N
1569016696.0,286046995.8,N
1569016715.8,286046996.2,N
1569016735.6,286046996.4,N
1569016755.5,286046997.6,N
1569016775.3,286046996.0,N
1569016795.1,286046994.0,N
